SCP
0 0 0 0 0 0 0 0 0 0 0 0 0 0 0 0 -0 -0 0 0 0 -0 0 0 0 0 0 0 0 0 0 0 0 0 0 0 0 0 0 0 0 0 0 0 2
0 0 0 0 0 0 0 0 0 0 0 0 0 0 0 0 -0 0 0 0 0 0 0 0 0 0 0 0 0 0 0 0 0 0 0 0 0 0 0 0 0 -0 0 1 1
0 0 0 0 0 0 0 0 0 0 0 0 0 0 0 0 -0 -0 0 -0 -0 0 0 0 0 0 0 0 0 0 0 0 0 0 0 0 0 -0 0 0 0 0 -1 1 1
0 0 0 0 0 0 0 0 0 0 0 0 0 0 0 0 0 0 0 0 -0 0 0 0 0 0 0 0 0 0 0 0 0 0 0 0 0 0 0 0 0 0 0 1 1
0 0 0 0 0 0 0 0 0 0 0 0 0 0 0 0 0 0 0 0 0 0 0 0 0 0 0 0 0 0 0 0 0 0 0 0 0 0 0 0 0 0 0 0 1
0 0 0 0 0 0 0 0 0 0 0 0 0 0 0 0 0 0 0 0 0 0 0 0 0 0 0 0 0 0 0 0 0 0 0 0 0 0 -0 0 0 0 0 0 0
0 0 0 0 0 0 0 0 0 0 0 0 0 0 0 0 0 0 0 0 0 0 0 0 0 0 0 0 0 0 0 0 0 0 0 0 0 -0 -0 0 0 0 0 0 0
0 0 0 0 0 0 0 0 0 0 0 0 0 0 0 0 0 0 0 0 0 0 0 0 0 0 0 0 0 0 0 0 0 0 0 0 0 -0 -0 0 0 0 0 0 0
0 0 0 0 0 0 0 0 0 0 0 0 0 0 0 0 0 0 0 0 0 0 0 0 0 0 0 0 0 0 0 0 0 0 0 0 0 0 0 0 0 0 0 0 0
0 0 0 0 0 0 0 0 0 0 0 0 0 0 0 0 0 0 0 0 0 0 0 0 0 0 0 0 0 0 0 0 0 0 0 0 0 0 0 0 0 0 0 0 0
0 0 0 0 0 0 0 0 0 0 0 0 0 0 0 0 0 0 0 0 0 0 0 0 0 0 0 0 0 0 0 0 0 0 0 0 0 0 0 0 0 0 0 0 0
0 0 0 0 0 0 0 0 0 0 0 0 0 0 0 0 0 0 0 0 0 0 0 0 0 0 0 0 0 0 0 0 0 0 0 0 0 0 0 0 0 0 0 0 0
0 0 0 0 0 0 0 0 0 0 0 0 0 0 0 0 0 0 0 0 0 0 0 0 0 0 0 0 0 0 0 0 0 0 0 0 0 0 0 0 0 0 0 0 0
0 0 0 0 0 0 0 0 0 0 0 0 0 0 0 -0 0 0 0 0 0 0 0 0 0 0 0 0 0 0 0 0 0 0 0 0 0 0 0 0 0 0 0 0 0
0 0 0 0 0 0 0 0 0 0 0 0 0 -0 -0 0 0 0 -0 0 0 0 0 0 0 0 0 0 0 0 0 0 0 0 0 0 0 0 0 0 0 0 -0 -0 0
0 0 0 0 0 0 0 0 0 0 0 0 0 0 -0 -0 0 -0 0 0 0 0 0 0 0 0 0 0 0 0 0 0 0 0 0 0 0 0 0 0 0 0 0 0 0
0 0 0 0 0 0 0 0 0 0 0 0 0 -0 0 0 0 0 0 0 0 0 0 0 0 0 0 0 0 0 0 0 0 0 0 -0 0 0 0 0 0 0 -0 0 0
0 0 0 0 0 0 0 0 0 0 0 -0 0 0 0 0 0 0 -0 0 0 0 0 0 0 0 0 0 0 0 0 0 0 0 0 0 0 0 0 0 0 0 -0 0 0
0 0 0 0 0 0 0 0 0 0 0 -0 -0 -0 -0 0 0 -0 -0 -0 0 -0 0 0 0 0 0 0 0 0 0 0 0 0 0 0 0 0 0 0 0 0 0 0 0
0 0 0 0 0 0 0 -0 0 0 0 -0 0 0 0 0 0 -0 -0 0 0 -0 0 0 0 0 0 0 0 0 0 0 0 0 0 0 0 0 0 0 0 0 0 0 0
0 0 0 0 0 0 0 0 -0 0 -0 -0 -0 0 0 0 0 0 0 -0 -0 0 0 0 0 0 0 0 0 0 0 0 0 0 0 0 0 0 0 0 0 0 0 0 0
0 0 0 0 0 0 0 -0 -0 0 -0 -0 -0 0 0 0 0 0 0 0 -0 -0 0 0 0 0 0 0 0 0 0 0 0 0 0 0 0 0 0 0 0 0 0 0 0
0 0 0 0 0 0 0 0 -0 -0 -0 0 0 -0 0 0 0 -0 0 0 -0 -0 -0 0 0 0 0 0 0 0 0 0 0 0 0 0 0 0 0 0 0 0 0 0 0
0 0 0 0 0 0 0 -0 -0 -0 -0 -0 -0 0 -0 -0 -0 0 0 0 0 0 0 0 0 0 0 0 0 0 0 0 0 0 0 0 0 0 0 0 0 0 0 0 0
0 0 0 0 0 0 0 0 -0 -0 -0 -0 0 -0 -0 -0 -0 0 0 0 0 0 0 0 0 0 0 0 0 0 0 0 0 0 0 0 0 0 0 0 0 0 0 0 0
0 0 0 0 0 0 0 0 -0 -0 -0 -0 -0 -0 -0 -0 -0 0 0 0 0 0 0 0 0 0 0 0 0 0 0 0 0 0 0 0 0 0 0 0 0 0 0 0 0
0 0 0 0 0 0 0 -0 -0 -0 -0 -0 -0 -0 -0 -0 0 -0 0 0 0 0 0 0 0 0 0 0 0 0 0 0 0 0 0 0 0 0 0 0 0 0 0 -0 0
Wind_Speed_500mb
42 42 41 41 41 42 42 44 45 47 43 45 47 48 50 54 56 59 76 54 55 31 47 25 28 37 36 24 29 20 4 10 16 18 12 10 1 6 23 27 50 24 19 29 45
47 48 49 49 48 48 45 45 48 48 49 49 50 50 54 56 58 70 64 47 48 46 52 57 37 36 21 22 18 11 11 19 12 11 9 13 7 13 14 38 37 21 23 27 59
54 55 57 56 57 57 56 56 53 51 51 53 51 53 53 52 57 22 1 3 5 33 58 46 51 36 18 24 23 14 16 12 9 28 29 15 18 23 9 14 10 24 7 46 72
54 54 55 56 57 58 59 60 58 57 55 54 53 51 42 33 14 5 17 8 6 22 55 54 63 21 12 16 22 15 23 27 15 45 15 11 39 16 25 33 44 30 4 56 65
55 57 58 59 60 62 62 61 58 58 59 58 53 41 30 19 67 47 41 36 34 18 59 69 49 42 19 15 23 9 4 16 56 48 44 52 29 21 49 59 58 42 13 43 52
56 57 58 59 61 62 62 61 61 61 61 59 57 33 35 41 63 15 24 43 50 50 40 71 46 51 30 12 16 12 40 40 35 30 27 25 31 19 52 43 54 40 24 19 25
58 60 63 63 63 65 67 67 63 63 67 62 56 36 53 89 62 52 44 31 25 37 48 64 50 47 26 3 54 24 19 16 19 50 14 23 30 51 46 49 52 45 29 21 20
65 66 68 70 71 72 73 72 69 71 80 73 62 37 48 56 68 83 70 77 54 38 54 47 76 44 10 16 10 14 13 19 8 18 16 29 44 35 28 42 55 54 44 36 32
70 72 74 74 76 78 81 76 74 78 53 45 26 30 33 32 41 17 17 38 58 77 56 38 47 34 21 4 9 11 8 17 12 19 12 28 14 32 38 44 52 50 44 41 31
71 72 74 74 76 78 81 80 64 39 14 10 7 15 38 39 28 14 16 16 27 43 46 44 27 15 16 19 34 11 8 8 13 13 21 33 21 18 36 37 45 49 49 48 48
74 76 78 79 79 80 86 66 34 7 11 21 45 50 57 57 32 27 36 12 37 40 24 45 22 45 49 46 15 15 12 11 9 15 16 16 14 19 28 32 30 40 47 52 62
76 81 83 87 82 78 50 30 38 28 30 44 86 86 109 98 82 94 33 12 19 24 30 15 53 25 24 36 24 16 14 11 6 11 9 14 19 18 19 19 35 54 59 57 52
78 83 85 92 88 51 37 62 15 32 15 36 50 41 39 29 55 75 38 33 31 24 43 31 10 38 30 38 42 39 32 12 8 2 5 7 14 16 17 22 48 57 64 66 63
79 81 83 94 57 44 54 16 31 25 9 14 11 8 2 13 12 29 17 58 20 40 35 29 36 41 43 43 36 41 21 18 11 7 7 9 10 13 16 22 22 43 49 63 61
80 81 82 51 51 40 34 21 9 14 9 8 7 24 12 5 34 7 26 54 43 35 37 29 35 39 43 36 28 17 19 15 10 7 2 13 3 15 4 15 16 19 47 60 63
80 81 71 29 42 38 27 23 8 3 16 11 6 24 22 27 21 11 14 25 35 15 39 38 25 33 33 29 28 11 13 11 6 8 10 22 13 11 8 13 8 11 40 53 46
79 71 26 42 46 39 21 14 5 10 15 8 18 23 40 37 13 6 6 11 6 15 31 28 44 25 31 26 27 17 16 4 6 7 15 16 13 16 11 10 5 12 28 40 48
77 35 39 43 55 37 13 3 13 12 13 32 30 43 23 9 5 6 8 7 4 9 8 22 23 51 28 31 20 18 20 11 13 11 8 18 11 9 6 12 22 36 29 12 37
77 21 55 58 42 29 8 6 7 12 15 21 33 21 10 13 10 4 4 5 17 27 11 16 18 7 41 18 34 19 24 21 7 4 9 6 6 0 16 26 28 40 59 55 42
71 32 53 53 25 11 2 9 10 9 16 14 11 7 10 11 13 4 18 22 14 28 30 6 8 16 32 34 22 19 19 13 2 7 6 4 5 7 8 20 27 33 43 50 59
46 21 42 50 18 15 5 11 13 32 42 11 10 11 10 8 20 10 9 9 13 9 10 1 3 12 27 13 33 18 17 8 12 9 9 8 2 3 14 24 33 29 49 62 71
27 10 38 48 14 8 10 27 25 26 50 14 12 5 9 8 9 7 8 9 21 21 6 4 5 9 17 15 25 5 11 19 8 9 5 10 4 10 17 32 37 43 57 70 77
37 14 30 30 8 15 19 24 23 38 33 17 14 10 9 8 9 14 8 13 17 11 15 11 3 7 8 5 9 10 10 14 7 5 9 10 7 7 13 28 49 61 64 73 87
19 9 15 12 31 9 22 16 29 48 29 41 22 23 28 12 14 9 10 6 4 6 21 33 4 8 9 8 10 20 16 15 12 9 11 9 14 17 20 30 38 53 64 75 91
18 7 8 10 16 23 19 13 39 26 15 25 10 29 29 10 11 16 15 14 3 18 7 5 6 9 7 12 12 18 16 14 8 7 15 15 17 32 32 33 36 48 53 54 50
20 12 14 27 32 12 12 6 32 40 14 16 16 33 27 13 3 11 11 8 8 2 4 3 6 10 9 18 14 12 12 16 11 10 12 23 15 17 34 39 36 43 46 46 55
36 36 24 17 13 14 8 30 40 39 22 23 33 32 27 17 40 46 36 31 21 13 5 6 6 7 5 8 11 6 9 6 8 6 23 12 16 32 32 31 41 37 45 53 51
Wind_Direction_500mb
338 335 333 330 326 324 323 321 319 317 314 313 313 310 308 306 303 295 282 283 278 263 242 232 216 209 211 219 211 201 191 214 208 184 222 183 64 283 303 301 312 291 263 270 221
341 338 336 333 330 328 325 322 318 316 314 313 311 309 309 308 308 291 297 285 255 232 224 215 215 194 184 207 207 182 195 217 208 211 215 245 278 331 319 318 309 359 343 252 201
341 339 337 336 333 333 331 328 326 322 318 316 311 309 310 317 320 302 287 176 209 213 211 217 214 197 206 206 193 201 228 202 236 236 253 258 291 274 274 284 295 357 112 173 178
338 336 333 331 329 328 326 325 323 321 319 315 313 310 306 310 287 199 216 198 12 220 200 201 206 187 197 217 207 237 221 216 220 244 263 260 257 268 244 253 289 306 186 177 178
337 335 332 330 328 326 323 321 317 316 313 311 309 307 297 255 254 262 260 251 269 247 205 193 187 195 187 195 225 250 274 222 228 240 252 269 263 270 268 269 279 286 182 188 193
336 333 331 329 327 324 320 317 315 313 307 304 302 294 267 251 290 289 257 238 250 241 221 202 208 196 201 215 192 211 220 243 253 242 239 250 271 250 262 266 273 265 223 194 200
337 334 331 329 327 322 318 316 314 307 302 301 291 276 258 248 265 268 268 251 212 231 227 217 203 185 198 220 246 253 272 272 238 243 244 255 273 244 262 259 262 263 237 224 218
335 333 329 327 324 321 318 318 312 307 301 291 282 262 253 268 281 269 258 241 222 209 219 235 211 204 192 255 319 201 207 247 184 190 224 181 254 272 258 239 242 252 254 246 236
335 333 330 328 326 322 320 316 314 309 303 285 247 224 267 278 267 303 263 254 240 231 226 211 209 214 218 143 307 239 206 216 257 193 226 194 245 267 258 231 233 244 251 253 246
334 333 331 329 325 324 319 318 322 315 325 68 178 234 257 251 278 263 335 287 200 202 206 208 189 194 202 193 216 192 182 169 175 212 203 244 242 273 267 236 220 235 245 254 266
336 334 333 332 329 325 324 332 346 316 314 271 261 227 271 270 276 260 305 274 195 176 178 185 199 208 198 208 219 191 208 191 186 224 189 233 240 236 255 253 263 252 245 248 248
336 335 335 334 328 324 321 324 332 311 296 266 266 256 259 265 274 265 239 270 197 197 171 164 219 205 208 202 219 236 225 208 207 243 170 259 264 240 242 248 236 251 258 256 248
335 334 337 334 328 326 316 316 315 325 279 289 262 254 259 238 248 270 238 238 231 220 193 198 222 191 200 193 202 224 224 169 167 22 302 354 300 287 268 240 248 253 259 257 253
334 336 338 333 329 313 317 323 306 305 285 281 248 301 247 199 222 272 235 209 211 223 203 219 231 191 199 207 194 216 192 186 180 157 220 143 274 272 272 259 228 238 240 246 252
335 338 339 343 329 329 339 319 270 159 303 258 249 67 79 242 303 271 319 191 204 201 185 206 183 212 206 208 193 203 168 170 168 173 340 247 231 270 272 269 228 223 236 245 245
339 340 334 345 351 350 356 333 170 171 247 293 304 353 359 341 297 309 359 181 198 237 212 215 193 202 216 209 198 123 136 183 158 128 247 230 167 276 250 221 202 216 225 229 225
344 348 22 357 344 337 337 317 260 231 326 279 338 346 333 305 289 84 55 318 170 183 215 211 218 213 178 216 198 166 139 180 166 182 227 152 162 230 272 288 244 249 266 259 218
346 5 8 351 344 327 307 6 223 255 250 322 335 327 299 299 225 120 67 236 166 286 165 200 203 220 199 198 182 179 169 163 177 171 194 119 201 234 5 16 55 61 61 95 163
345 359 14 355 336 326 239 224 273 338 331 323 311 280 284 341 336 126 89 194 211 209 209 182 215 189 228 197 176 173 199 188 82 133 110 172 176 269 39 38 48 59 67 69 92
347 351 9 359 343 8 334 304 308 276 289 297 275 304 254 285 309 238 178 202 209 201 210 196 150 207 212 208 219 170 161 181 164 206 137 146 123 193 8 74 79 76 81 85 97
357 346 1 4 356 6 15 304 288 302 327 307 275 281 272 287 251 259 266 210 181 157 177 187 79 164 257 195 197 200 178 90 139 153 164 127 281 237 126 104 95 90 92 93 96
360 326 352 3 39 352 342 322 302 303 331 300 276 236 249 275 270 272 261 268 166 127 225 244 124 132 186 137 185 240 182 176 138 201 208 128 202 99 128 118 105 99 100 100 102
334 291 351 6 27 350 334 310 326 331 329 1 301 327 291 286 288 250 311 301 205 149 156 192 225 117 61 25 159 174 193 151 152 138 165 122 200 160 142 127 120 117 112 110 113
344 329 333 13 359 320 329 323 334 332 314 341 293 323 341 308 317 308 307 305 154 76 127 173 173 149 164 118 128 145 151 147 136 126 155 170 133 150 147 143 134 129 128 127 123
1 327 326 316 326 314 313 281 329 336 325 329 317 342 327 292 315 0 353 325 296 108 53 89 248 187 192 164 128 137 139 125 123 166 154 169 153 170 161 152 137 131 128 126 123
353 335 301 288 293 301 303 316 315 324 306 297 314 317 308 291 347 316 330 312 349 43 119 80 252 160 84 78 74 150 151 123 154 129 58 124 82 125 140 137 132 137 129 120 115
334 325 297 287 304 302 328 326 313 318 297 289 310 304 305 309 323 297 277 271 270 301 184 165 262 135 129 72 87 79 196 113 119 151 141 135 159 138 141 149 149 139 122 116 116
Wind_Speed_850mb
42 42 41 41 41 42 42 44 45 47 43 45 47 48 50 54 56 59 76 54 55 31 47 25 28 37 36 24 29 20 4 10 16 18 12 10 1 6 23 27 50 24 19 29 45
47 48 49 49 48 48 45 45 48 48 49 49 50 50 54 56 58 70 64 47 48 46 52 57 37 36 21 22 18 11 11 19 12 11 9 13 7 13 14 38 37 21 23 27 59
54 55 57 56 57 57 56 56 53 51 51 53 51 53 53 52 57 22 1 3 5 33 58 46 51 36 18 24 23 14 16 12 9 28 29 15 18 23 9 14 10 24 7 46 72
54 54 55 56 57 58 59 60 58 57 55 54 53 51 42 33 14 5 17 8 6 22 55 54 63 21 12 16 22 15 23 27 15 45 15 11 39 16 25 33 44 30 4 56 65
55 57 58 59 60 62 62 61 58 58 59 58 53 41 30 19 67 47 41 36 34 18 59 69 49 42 19 15 23 9 4 16 56 48 44 52 29 21 49 59 58 42 13 43 52
56 57 58 59 61 62 62 61 61 61 61 59 57 33 35 41 63 15 24 43 50 50 40 71 46 51 30 12 16 12 40 40 35 30 27 25 31 19 52 43 54 40 24 19 25
58 60 63 63 63 65 67 67 63 63 67 62 56 36 53 89 62 52 44 31 25 37 48 64 50 47 26 3 54 24 19 16 19 50 14 23 30 51 46 49 52 45 29 21 20
65 66 68 70 71 72 73 72 69 71 80 73 62 37 48 56 68 83 70 77 54 38 54 47 76 44 10 16 10 14 13 19 8 18 16 29 44 35 28 42 55 54 44 36 32
70 72 74 74 76 78 81 76 74 78 53 45 26 30 33 32 41 17 17 38 58 77 56 38 47 34 21 4 9 11 8 17 12 19 12 28 14 32 38 44 52 50 44 41 31
71 72 74 74 76 78 81 80 64 39 14 10 7 15 38 39 28 14 16 16 27 43 46 44 27 15 16 19 34 11 8 8 13 13 21 33 21 18 36 37 45 49 49 48 48
74 76 78 79 79 80 86 66 34 7 11 21 45 50 57 57 32 27 36 12 37 40 24 45 22 45 49 46 15 15 12 11 9 15 16 16 14 19 28 32 30 40 47 52 62
76 81 83 87 82 78 50 30 38 28 30 44 86 86 109 98 82 94 33 12 19 24 30 15 53 25 24 36 24 16 14 11 6 11 9 14 19 18 19 19 35 54 59 57 52
78 83 85 92 88 51 37 62 15 32 15 36 50 41 39 29 55 75 38 33 31 24 43 31 10 38 30 38 42 39 32 12 8 2 5 7 14 16 17 22 48 57 64 66 63
79 81 83 94 57 44 54 16 31 25 9 14 11 8 2 13 12 29 17 58 20 40 35 29 36 41 43 43 36 41 21 18 11 7 7 9 10 13 16 22 22 43 49 63 61
80 81 82 51 51 40 34 21 9 14 9 8 7 24 12 5 34 7 26 54 43 35 37 29 35 39 43 36 28 17 19 15 10 7 2 13 3 15 4 15 16 19 47 60 63
80 81 71 29 42 38 27 23 8 3 16 11 6 24 22 27 21 11 14 25 35 15 39 38 25 33 33 29 28 11 13 11 6 8 10 22 13 11 8 13 8 11 40 53 46
79 71 26 42 46 39 21 14 5 10 15 8 18 23 40 37 13 6 6 11 6 15 31 28 44 25 31 26 27 17 16 4 6 7 15 16 13 16 11 10 5 12 28 40 48
77 35 39 43 55 37 13 3 13 12 13 32 30 43 23 9 5 6 8 7 4 9 8 22 23 51 28 31 20 18 20 11 13 11 8 18 11 9 6 12 22 36 29 12 37
77 21 55 58 42 29 8 6 7 12 15 21 33 21 10 13 10 4 4 5 17 27 11 16 18 7 41 18 34 19 24 21 7 4 9 6 6 0 16 26 28 40 59 55 42
71 32 53 53 25 11 2 9 10 9 16 14 11 7 10 11 13 4 18 22 14 28 30 6 8 16 32 34 22 19 19 13 2 7 6 4 5 7 8 20 27 33 43 50 59
46 21 42 50 18 15 5 11 13 32 42 11 10 11 10 8 20 10 9 9 13 9 10 1 3 12 27 13 33 18 17 8 12 9 9 8 2 3 14 24 33 29 49 62 71
27 10 38 48 14 8 10 27 25 26 50 14 12 5 9 8 9 7 8 9 21 21 6 4 5 9 17 15 25 5 11 19 8 9 5 10 4 10 17 32 37 43 57 70 77
37 14 30 30 8 15 19 24 23 38 33 17 14 10 9 8 9 14 8 13 17 11 15 11 3 7 8 5 9 10 10 14 7 5 9 10 7 7 13 28 49 61 64 73 87
19 9 15 12 31 9 22 16 29 48 29 41 22 23 28 12 14 9 10 6 4 6 21 33 4 8 9 8 10 20 16 15 12 9 11 9 14 17 20 30 38 53 64 75 91
18 7 8 10 16 23 19 13 39 26 15 25 10 29 29 10 11 16 15 14 3 18 7 5 6 9 7 12 12 18 16 14 8 7 15 15 17 32 32 33 36 48 53 54 50
20 12 14 27 32 12 12 6 32 40 14 16 16 33 27 13 3 11 11 8 8 2 4 3 6 10 9 18 14 12 12 16 11 10 12 23 15 17 34 39 36 43 46 46 55
36 36 24 17 13 14 8 30 40 39 22 23 33 32 27 17 40 46 36 31 21 13 5 6 6 7 5 8 11 6 9 6 8 6 23 12 16 32 32 31 41 37 45 53 51
Wind_Direction_850mb
338 335 333 330 326 324 323 321 319 317 314 313 313 310 308 306 303 295 282 283 278 263 242 232 216 209 211 219 211 201 191 214 208 184 222 183 64 283 303 301 312 291 263 270 221
341 338 336 333 330 328 325 322 318 316 314 313 311 309 309 308 308 291 297 285 255 232 224 215 215 194 184 207 207 182 195 217 208 211 215 245 278 331 319 318 309 359 343 252 201
341 339 337 336 333 333 331 328 326 322 318 316 311 309 310 317 320 302 287 176 209 213 211 217 214 197 206 206 193 201 228 202 236 236 253 258 291 274 274 284 295 357 112 173 178
338 336 333 331 329 328 326 325 323 321 319 315 313 310 306 310 287 199 216 198 12 220 200 201 206 187 197 217 207 237 221 216 220 244 263 260 257 268 244 253 289 306 186 177 178
337 335 332 330 328 326 323 321 317 316 313 311 309 307 297 255 254 262 260 251 269 247 205 193 187 195 187 195 225 250 274 222 228 240 252 269 263 270 268 269 279 286 182 188 193
336 333 331 329 327 324 320 317 315 313 307 304 302 294 267 251 290 289 257 238 250 241 221 202 208 196 201 215 192 211 220 243 253 242 239 250 271 250 262 266 273 265 223 194 200
337 334 331 329 327 322 318 316 314 307 302 301 291 276 258 248 265 268 268 251 212 231 227 217 203 185 198 220 246 253 272 272 238 243 244 255 273 244 262 259 262 263 237 224 218
335 333 329 327 324 321 318 318 312 307 301 291 282 262 253 268 281 269 258 241 222 209 219 235 211 204 192 255 319 201 207 247 184 190 224 181 254 272 258 239 242 252 254 246 236
335 333 330 328 326 322 320 316 314 309 303 285 247 224 267 278 267 303 263 254 240 231 226 211 209 214 218 143 307 239 206 216 257 193 226 194 245 267 258 231 233 244 251 253 246
334 333 331 329 325 324 319 318 322 315 325 68 178 234 257 251 278 263 335 287 200 202 206 208 189 194 202 193 216 192 182 169 175 212 203 244 242 273 267 236 220 235 245 254 266
336 334 333 332 329 325 324 332 346 316 314 271 261 227 271 270 276 260 305 274 195 176 178 185 199 208 198 208 219 191 208 191 186 224 189 233 240 236 255 253 263 252 245 248 248
336 335 335 334 328 324 321 324 332 311 296 266 266 256 259 265 274 265 239 270 197 197 171 164 219 205 208 202 219 236 225 208 207 243 170 259 264 240 242 248 236 251 258 256 248
335 334 337 334 328 326 316 316 315 325 279 289 262 254 259 238 248 270 238 238 231 220 193 198 222 191 200 193 202 224 224 169 167 22 302 354 300 287 268 240 248 253 259 257 253
334 336 338 333 329 313 317 323 306 305 285 281 248 301 247 199 222 272 235 209 211 223 203 219 231 191 199 207 194 216 192 186 180 157 220 143 274 272 272 259 228 238 240 246 252
335 338 339 343 329 329 339 319 270 159 303 258 249 67 79 242 303 271 319 191 204 201 185 206 183 212 206 208 193 203 168 170 168 173 340 247 231 270 272 269 228 223 236 245 245
339 340 334 345 351 350 356 333 170 171 247 293 304 353 359 341 297 309 359 181 198 237 212 215 193 202 216 209 198 123 136 183 158 128 247 230 167 276 250 221 202 216 225 229 225
344 348 22 357 344 337 337 317 260 231 326 279 338 346 333 305 289 84 55 318 170 183 215 211 218 213 178 216 198 166 139 180 166 182 227 152 162 230 272 288 244 249 266 259 218
346 5 8 351 344 327 307 6 223 255 250 322 335 327 299 299 225 120 67 236 166 286 165 200 203 220 199 198 182 179 169 163 177 171 194 119 201 234 5 16 55 61 61 95 163
345 359 14 355 336 326 239 224 273 338 331 323 311 280 284 341 336 126 89 194 211 209 209 182 215 189 228 197 176 173 199 188 82 133 110 172 176 269 39 38 48 59 67 69 92
347 351 9 359 343 8 334 304 308 276 289 297 275 304 254 285 309 238 178 202 209 201 210 196 150 207 212 208 219 170 161 181 164 206 137 146 123 193 8 74 79 76 81 85 97
357 346 1 4 356 6 15 304 288 302 327 307 275 281 272 287 251 259 266 210 181 157 177 187 79 164 257 195 197 200 178 90 139 153 164 127 281 237 126 104 95 90 92 93 96
360 326 352 3 39 352 342 322 302 303 331 300 276 236 249 275 270 272 261 268 166 127 225 244 124 132 186 137 185 240 182 176 138 201 208 128 202 99 128 118 105 99 100 100 102
334 291 351 6 27 350 334 310 326 331 329 1 301 327 291 286 288 250 311 301 205 149 156 192 225 117 61 25 159 174 193 151 152 138 165 122 200 160 142 127 120 117 112 110 113
344 329 333 13 359 320 329 323 334 332 314 341 293 323 341 308 317 308 307 305 154 76 127 173 173 149 164 118 128 145 151 147 136 126 155 170 133 150 147 143 134 129 128 127 123
1 327 326 316 326 314 313 281 329 336 325 329 317 342 327 292 315 0 353 325 296 108 53 89 248 187 192 164 128 137 139 125 123 166 154 169 153 170 161 152 137 131 128 126 123
353 335 301 288 293 301 303 316 315 324 306 297 314 317 308 291 347 316 330 312 349 43 119 80 252 160 84 78 74 150 151 123 154 129 58 124 82 125 140 137 132 137 129 120 115
334 325 297 287 304 302 328 326 313 318 297 289 310 304 305 309 323 297 277 271 270 301 184 165 262 135 129 72 87 79 196 113 119 151 141 135 159 138 141 149 149 139 122 116 116